Find Starlink 32782

NORAD ID: 62821 Int'l Des: 2025-018 Owner: SPXS Country: US Constellation: starlink operational
LEOCIRCULAR

現在のビュー

3D地球を読み込み中...

About Starlink 32782

Starlink 32782 (NORAD 62821) is a starlink constellation satellite (v2 mini) launched Jan 24, 2025 by SPXS of US. It operates in LEO, CIRCULAR orbit with a mass of 730.00 kg.

次回通過

Passes for default location (London). Set your location on the main map for personalized predictions.

高度履歴

Loading altitude history...

軌道要素

1 62821U 25018R 26263.03270100 .00016396 00000-0 49517-3 0 9991
2 62821 53.1590 124.0214 0000711 76.5483 283.5598 15.34409299 92973
Epoch: Sep 20, 2026 • Age: 21 hours

現在のステータス

高度 467.8 km
遠地点 / 近地点 N/A
速度 7.64 km/s
衛星直下点 49.59°N, 139.99°W
打ち上げ日 Jan 24, 2025
運用期間 1.6 years
タイプ internet

技術仕様

分類 Payload
質量 730.00 kg
乾燥質量 700.00 kg
長さ 0.30 m
スパン 29.00 m
形状 ? Box + pan
製造者 SPXS
バスタイプ Starlink V2M
フェーズステータス In Orbit
所有者/国 SPXS/US

Most Searched